| time (UTC) | temp F | wind direction | speed MPH | gust MPH | rain 1hr in | rain 24hr in | rain mn in | humidity % | barometer mb |
| 20260508004326 | 52 | 341 | 0.0 | 0.0 | 0.00 | 0.15 | 0.14 | 94 | 1011.1 |
| 20260508003321 | 52 | 341 | 0.0 | 0.0 | 0.00 | 0.15 | 0.14 | 94 | 1010.9 |
| 20260508002311 | 52 | 341 | 0.0 | 0.0 | 0.00 | 0.15 | 0.14 | 94 | 1010.9 |
| 20260508001329 | 52 | 341 | 0.0 | 0.0 | 0.00 | 0.15 | 0.14 | 93 | 1010.8 |
| 20260508000342 | 53 | 341 | 0.0 | 0.0 | 0.00 | 0.15 | 0.14 | 93 | 1010.8 |
| 20260507235355 | 53 | 341 | 0.0 | 0.0 | 0.00 | 0.15 | 0.14 | 93 | 1010.4 |
| 20260507234323 | 53 | 341 | 0.0 | 0.0 | 0.00 | 0.15 | 0.14 | 92 | 1010.3 |
| 20260507233312 | 53 | 341 | 0.0 | 0.0 | 0.00 | 0.15 | 0.14 | 92 | 1010.2 |
| 20260507232331 | 53 | 341 | 0.0 | 0.0 | 0.00 | 0.15 | 0.14 | 91 | 1010.2 |
| 20260507231321 | 54 | 341 | 0.0 | 0.0 | 0.00 | 0.15 | 0.14 | 90 | 1010.2 |
| 20260507230313 | 54 | 341 | 0.0 | 0.0 | 0.00 | 0.15 | 0.14 | 90 | 1010.0 |
| 20260507225330 | 54 | 341 | 0.0 | 0.0 | 0.00 | 0.15 | 0.14 | 90 | 1010.0 |
| 20260507224324 | 55 | 341 | 0.0 | 1.0 | 0.00 | 0.15 | 0.14 | 90 | 1010.2 |
| 20260507223315 | 55 | 341 | 0.0 | 0.0 | 0.00 | 0.15 | 0.14 | 90 | 1010.1 |
| 20260507222331 | 55 | 341 | 0.0 | 1.0 | 0.00 | 0.15 | 0.14 | 89 | 1010.1 |
| 20260507221321 | 56 | 341 | 0.0 | 1.0 | 0.00 | 0.15 | 0.14 | 89 | 1009.8 |
| 20260507220338 | 56 | 341 | 0.0 | 1.0 | 0.00 | 0.15 | 0.14 | 92 | 1009.8 |
| 20260507215334 | 55 | 341 | 0.0 | 1.0 | 0.00 | 0.15 | 0.14 | 90 | 1009.8 |
| 20260507214350 | 55 | 341 | 0.0 | 1.0 | 0.03 | 0.15 | 0.14 | 92 | 1009.9 |
| 20260507213320 | 55 | 341 | 0.0 | 0.0 | 0.06 | 0.15 | 0.14 | 92 | 1009.9 |
| 20260507212334 | 55 | 341 | 0.0 | 1.0 | 0.06 | 0.15 | 0.14 | 92 | 1009.9 |
| 20260507211324 | 55 | 341 | 0.0 | 0.0 | 0.07 | 0.15 | 0.14 | 93 | 1009.6 |
| 20260507210334 | 55 | 341 | 0.0 | 1.0 | 0.07 | 0.15 | 0.14 | 93 | 1009.7 |
| 20260507205323 | 54 | 341 | 0.0 | 1.0 | 0.07 | 0.15 | 0.14 | 93 | 1009.8 |
| 20260507204338 | 54 | 341 | 0.0 | 1.0 | 0.04 | 0.12 | 0.11 | 92 | 1009.8 |
| 20260507203332 | 54 | 341 | 0.0 | 1.0 | 0.01 | 0.09 | 0.08 | 92 | 1009.9 |
| 20260507202321 | 55 | 341 | 0.0 | 1.0 | 0.01 | 0.09 | 0.08 | 92 | 1009.8 |
| 20260507201336 | 55 | 341 | 0.0 | 1.0 | 0.01 | 0.08 | 0.07 | 92 | 1010.0 |
| 20260507200350 | 55 | 341 | 0.0 | 1.0 | 0.02 | 0.08 | 0.07 | 92 | 1010.2 |
| 20260507195314 | 55 | 341 | 0.0 | 1.0 | 0.02 | 0.08 | 0.07 | 92 | 1010.4 |
| 20260507194329 | 55 | 341 | 0.0 | 1.0 | 0.02 | 0.08 | 0.07 | 93 | 1010.2 |
| 20260507193319 | 54 | 341 | 0.0 | 1.0 | 0.02 | 0.08 | 0.07 | 93 | 1010.3 |
| 20260507192335 | 54 | 341 | 0.0 | 1.0 | 0.02 | 0.08 | 0.07 | 93 | 1010.4 |
| 20260507191331 | 54 | 341 | 0.0 | 1.0 | 0.01 | 0.07 | 0.06 | 93 | 1010.4 |
| 20260507190324 | 54 | 341 | 0.0 | 3.0 | 0.00 | 0.06 | 0.05 | 92 | 1010.4 |
| 20260507185312 | 54 | 341 | 0.0 | 2.0 | 0.00 | 0.06 | 0.05 | 92 | 1010.5 |
| 20260507184329 | 55 | 341 | 0.0 | 2.0 | 0.00 | 0.06 | 0.05 | 91 | 1010.5 |
| 20260507183347 | 55 | 341 | 1.0 | 2.0 | 0.00 | 0.06 | 0.05 | 91 | 1010.5 |
| 20260507182317 | 55 | 341 | 1.0 | 6.0 | 0.00 | 0.06 | 0.05 | 92 | 1010.2 |
| 20260507181324 | 55 | 341 | 0.0 | 4.0 | 0.01 | 0.06 | 0.05 | 93 | 1010.5 |
| 20260507180313 | 54 | 341 | 0.0 | 7.0 | 0.01 | 0.06 | 0.05 | 92 | 1010.4 |
| 20260507175349 | 55 | 341 | 0.0 | 5.0 | 0.01 | 0.06 | 0.05 | 93 | 1010.6 |
| 20260507174332 | 55 | 341 | 1.0 | 4.0 | 0.01 | 0.06 | 0.05 | 94 | 1010.4 |
| 20260507173322 | 54 | 341 | 1.0 | 6.0 | 0.01 | 0.06 | 0.05 | 94 | 1010.5 |
| 20260507172337 | 54 | 341 | 1.0 | 4.0 | 0.01 | 0.06 | 0.05 | 93 | 1010.5 |
| 20260507171326 | 55 | 341 | 1.0 | 6.0 | 0.00 | 0.05 | 0.04 | 92 | 1010.8 |
| 20260507170342 | 55 | 341 | 1.0 | 4.0 | 0.00 | 0.05 | 0.04 | 91 | 1010.7 |
| 20260507165356 | 56 | 341 | 1.0 | 5.0 | 0.00 | 0.05 | 0.04 | 90 | 1010.7 |
| 20260507164325 | 56 | 341 | 1.0 | 6.0 | 0.00 | 0.05 | 0.04 | 90 | 1010.7 |
| 20260507163312 | 56 | 341 | 0.0 | 5.0 | 0.00 | 0.06 | 0.04 | 89 | 1011.0 |
| 20260507162329 | 56 | 341 | 0.0 | 7.0 | 0.00 | 0.06 | 0.04 | 87 | 1011.2 |
| 20260507161333 | 56 | 341 | 1.0 | 5.0 | 0.00 | 0.06 | 0.04 | 87 | 1011.3 |
| 20260507160328 | 56 | 341 | 1.0 | 4.0 | 0.00 | 0.06 | 0.04 | 87 | 1011.3 |
| 20260507155315 | 56 | 341 | 1.0 | 6.0 | 0.00 | 0.06 | 0.04 | 86 | 1011.2 |
| 20260507154330 | 56 | 341 | 2.0 | 6.0 | 0.00 | 0.06 | 0.04 | 86 | 1010.9 |
| 20260507153319 | 57 | 341 | 1.0 | 6.0 | 0.00 | 0.09 | 0.04 | 86 | 1011.2 |
| 20260507152337 | 57 | 341 | 2.0 | 7.0 | 0.00 | 0.09 | 0.04 | 87 | 1010.7 |
| 20260507151324 | 56 | 341 | 1.0 | 3.0 | 0.00 | 0.09 | 0.04 | 88 | 1010.8 |
| 20260507150320 | 56 | 341 | 1.0 | 6.0 | 0.00 | 0.09 | 0.04 | 87 | 1010.9 |
| 20260507145357 | 56 | 341 | 2.0 | 6.0 | 0.00 | 0.09 | 0.04 | 88 | 1011.1 |
| 20260507144326 | 56 | 341 | 1.0 | 7.0 | 0.00 | 0.09 | 0.04 | 89 | 1010.9 |
| 20260507143315 | 56 | 341 | 2.0 | 9.0 | 0.00 | 0.09 | 0.04 | 89 | 1011.1 |
| 20260507142330 | 56 | 341 | 2.0 | 8.0 | 0.01 | 0.09 | 0.04 | 89 | 1011.0 |
| 20260507141344 | 56 | 341 | 1.0 | 5.0 | 0.01 | 0.09 | 0.04 | 91 | 1010.5 |
| 20260507140357 | 56 | 341 | 1.0 | 3.0 | 0.01 | 0.09 | 0.04 | 91 | 1011.1 |
| 20260507135323 | 56 | 341 | 1.0 | 7.0 | 0.01 | 0.09 | 0.04 | 91 | 1011.1 |
| 20260507134313 | 56 | 341 | 0.0 | 8.0 | 0.01 | 0.09 | 0.04 | 92 | 1011.3 |
| 20260507133330 | 55 | 341 | 1.0 | 7.0 | 0.01 | 0.09 | 0.04 | 93 | 1011.2 |
| 20260507132319 | 55 | 341 | 2.0 | 5.0 | 0.00 | 0.08 | 0.03 | 93 | 1011.4 |
| 20260507131335 | 55 | 341 | 0.0 | 3.0 | 0.00 | 0.08 | 0.03 | 94 | 1011.3 |
| 20260507130324 | 55 | 341 | 0.0 | 4.0 | 0.00 | 0.08 | 0.03 | 95 | 1010.9 |
| 20260507125315 | 55 | 341 | 0.0 | 4.0 | 0.00 | 0.08 | 0.03 | 95 | 1010.4 |
| 20260507124348 | 55 | 341 | 0.0 | 3.0 | 0.00 | 0.08 | 0.03 | 95 | 1011.2 |
| 20260507123341 | 55 | 341 | 0.0 | 2.0 | 0.00 | 0.08 | 0.03 | 95 | 1011.0 |
| 20260507122336 | 54 | 341 | 1.0 | 5.0 | 0.01 | 0.08 | 0.03 | 95 | 1011.0 |
| 20260507121329 | 55 | 341 | 0.0 | 5.0 | 0.01 | 0.08 | 0.03 | 95 | 1011.1 |
| 20260507120321 | 55 | 341 | 1.0 | 4.0 | 0.01 | 0.08 | 0.03 | 95 | 1010.9 |
| 20260507115331 | 55 | 341 | 1.0 | 4.0 | 0.02 | 0.08 | 0.03 | 95 | 1010.3 |
| 20260507114322 | 56 | 341 | 1.0 | 6.0 | 0.02 | 0.08 | 0.03 | 94 | 1010.7 |
| 20260507113357 | 57 | 341 | 1.0 | 6.0 | 0.02 | 0.08 | 0.03 | 94 | 1010.8 |
| 20260507112324 | 58 | 341 | 1.0 | 5.0 | 0.01 | 0.07 | 0.02 | 94 | 1011.0 |
| 20260507111313 | 61 | 341 | 3.0 | 12.0 | 0.01 | 0.07 | 0.02 | 92 | 1010.0 |
| 20260507110330 | 64 | 341 | 0.0 | 1.0 | 0.01 | 0.07 | 0.02 | 97 | 1009.9 |
| 20260507105318 | 64 | 341 | 0.0 | 1.0 | 0.01 | 0.06 | 0.01 | 97 | 1009.5 |
| 20260507104354 | 64 | 341 | 0.0 | 0.0 | 0.01 | 0.06 | 0.01 | 97 | 1009.4 |
| 20260507103342 | 64 | 341 | 0.0 | 0.0 | 0.01 | 0.06 | 0.01 | 97 | 1009.1 |
| 20260507102336 | 64 | 341 | 0.0 | 0.0 | 0.01 | 0.06 | 0.01 | 97 | 1009.1 |
| 20260507101325 | 64 | 341 | 0.0 | 0.0 | 0.01 | 0.06 | 0.01 | 97 | 1009.1 |
| 20260507100314 | 65 | 341 | 0.0 | 1.0 | 0.01 | 0.06 | 0.01 | 97 | 1009.1 |
| 20260507095331 | 65 | 341 | 0.0 | 0.0 | 0.00 | 0.05 | 0.00 | 97 | 1009.5 |
| 20260507094320 | 65 | 341 | 0.0 | 0.0 | 0.00 | 0.05 | 0.00 | 97 | 1009.7 |
| 20260507093335 | 65 | 341 | 0.0 | 1.0 | 0.00 | 0.05 | 0.00 | 97 | 1009.6 |
| 20260507092324 | 65 | 341 | 0.0 | 2.0 | 0.00 | 0.05 | 0.00 | 97 | 1009.5 |
| 20260507091314 | 65 | 341 | 0.0 | 3.0 | 0.00 | 0.05 | 0.00 | 97 | 1009.7 |
| 20260507090331 | 65 | 341 | 0.0 | 0.0 | 0.00 | 0.05 | 0.00 | 96 | 1010.0 |
| 20260507085348 | 65 | 341 | 0.0 | 0.0 | 0.00 | 0.05 | 0.00 | 96 | 1009.6 |
| 20260507084315 | 65 | 341 | 0.0 | 1.0 | 0.00 | 0.05 | 0.00 | 96 | 1009.6 |
| 20260507083329 | 65 | 341 | 0.0 | 2.0 | 0.00 | 0.05 | 0.00 | 96 | 1009.5 |
| 20260507082336 | 65 | 341 | 0.0 | 2.0 | 0.00 | 0.05 | 0.00 | 96 | 1009.3 |
| 20260507081326 | 65 | 341 | 1.0 | 2.0 | 0.00 | 0.05 | 0.00 | 96 | 1008.9 |
| 20260507080312 | 65 | 341 | 1.0 | 3.0 | 0.00 | 0.05 | 0.00 | 96 | 1009.1 |
| 20260507075328 | 65 | 341 | 0.0 | 3.0 | 0.00 | 0.05 | 0.00 | 96 | 1008.8 |
| 20260507074315 | 65 | 341 | 1.0 | 4.0 | 0.00 | 0.05 | 0.00 | 96 | 1008.9 |
| 20260507073331 | 65 | 341 | 1.0 | 6.0 | 0.00 | 0.05 | 0.00 | 96 | 1008.7 |
| 20260507072320 | 65 | 341 | 1.0 | 6.0 | 0.00 | 0.05 | 0.00 | 96 | 1008.4 |
| 20260507071335 | 65 | 341 | 1.0 | 4.0 | 0.00 | 0.05 | 0.00 | 96 | 1008.5 |
| 20260507070321 | 65 | 341 | 1.0 | 6.0 | 0.00 | 0.05 | 0.00 | 96 | 1009.0 |
| 20260507065315 | 65 | 341 | 1.0 | 5.0 | 0.00 | 0.05 | 0.00 | 96 | 1009.1 |
| 20260507064331 | 65 | 341 | 1.0 | 5.0 | 0.00 | 0.05 | 0.00 | 96 | 1009.5 |
| 20260507063324 | 65 | 341 | 0.0 | 7.0 | 0.00 | 0.05 | 0.00 | 96 | 1009.6 |
| 20260507062314 | 65 | 341 | 2.0 | 6.0 | 0.00 | 0.05 | 0.00 | 95 | 1009.6 |
| 20260507061322 | 65 | 341 | 1.0 | 9.0 | 0.00 | 0.05 | 0.00 | 95 | 1009.5 |
| 20260507060338 | 65 | 341 | 2.0 | 6.0 | 0.00 | 0.05 | 0.00 | 95 | 1009.6 |
| 20260507055328 | 65 | 341 | 1.0 | 5.0 | 0.00 | 0.05 | 0.00 | 95 | 1009.6 |
| 20260507054315 | 65 | 341 | 1.0 | 7.0 | 0.00 | 0.05 | 0.00 | 95 | 1009.7 |
| 20260507053332 | 65 | 341 | 1.0 | 4.0 | 0.00 | 0.05 | 0.05 | 95 | 1009.4 |
| 20260507052322 | 65 | 341 | 0.0 | 4.0 | 0.01 | 0.05 | 0.05 | 94 | 1009.6 |
| 20260507051313 | 65 | 341 | 1.0 | 4.0 | 0.01 | 0.05 | 0.05 | 94 | 1009.7 |
| 20260507050328 | 66 | 341 | 1.0 | 6.0 | 0.01 | 0.05 | 0.05 | 94 | 1010.0 |
| 20260507045316 | 66 | 341 | 2.0 | 5.0 | 0.01 | 0.05 | 0.05 | 93 | 1010.1 |
| 20260507044332 | 66 | 341 | 2.0 | 5.0 | 0.01 | 0.05 | 0.05 | 92 | 1010.2 |
| 20260507043321 | 67 | 341 | 2.0 | 12.0 | 0.01 | 0.05 | 0.05 | 91 | 1011.1 |
| 20260507042337 | 67 | 341 | 3.0 | 10.0 | 0.00 | 0.04 | 0.04 | 90 | 1011.3 |
| 20260507041324 | 68 | 341 | 5.0 | 9.0 | 0.00 | 0.04 | 0.04 | 88 | 1011.2 |
| 20260507040313 | 68 | 341 | 4.0 | 9.0 | 0.00 | 0.04 | 0.04 | 86 | 1011.3 |
| 20260507035322 | 68 | 341 | 3.0 | 7.0 | 0.00 | 0.04 | 0.04 | 86 | 1011.2 |
| 20260507034336 | 68 | 341 | 3.0 | 8.0 | 0.00 | 0.04 | 0.04 | 86 | 1010.8 |
| 20260507033324 | 68 | 341 | 3.0 | 10.0 | 0.00 | 0.04 | 0.04 | 85 | 1010.3 |
| 20260507032312 | 68 | 341 | 3.0 | 10.0 | 0.00 | 0.04 | 0.04 | 85 | 1010.5 |
| 20260507031328 | 68 | 341 | 3.0 | 8.0 | 0.00 | 0.04 | 0.04 | 85 | 1010.1 |
| 20260507030319 | 68 | 341 | 2.0 | 9.0 | 0.00 | 0.04 | 0.04 | 85 | 1009.9 |
| 20260507025335 | 68 | 341 | 1.0 | 5.0 | 0.00 | 0.04 | 0.04 | 86 | 1010.0 |
| 20260507024324 | 68 | 341 | 2.0 | 5.0 | 0.00 | 0.04 | 0.04 | 86 | 1010.3 |
| 20260507023316 | 68 | 341 | 2.0 | 5.0 | 0.00 | 0.04 | 0.04 | 86 | 1010.2 |
| 20260507022332 | 68 | 341 | 2.0 | 6.0 | 0.00 | 0.04 | 0.04 | 86 | 1010.1 |
| 20260507021319 | 68 | 341 | 0.0 | 6.0 | 0.00 | 0.04 | 0.04 | 86 | 1010.1 |
| 20260507020355 | 68 | 341 | 2.0 | 5.0 | 0.00 | 0.04 | 0.04 | 86 | 1010.1 |
| 20260507015323 | 68 | 341 | 2.0 | 4.0 | 0.00 | 0.04 | 0.04 | 86 | 1010.1 |
| 20260507014317 | 68 | 341 | 2.0 | 8.0 | 0.00 | 0.04 | 0.04 | 86 | 1010.6 |
| 20260507013332 | 68 | 341 | 2.0 | 8.0 | 0.00 | 0.04 | 0.04 | 86 | 1010.4 |
| 20260507012319 | 68 | 341 | 1.0 | 7.0 | 0.00 | 0.04 | 0.04 | 86 | 1010.2 |
| 20260507011334 | 68 | 341 | 3.0 | 6.0 | 0.00 | 0.04 | 0.04 | 86 | 1010.2 |
| 20260507010343 | 68 | 341 | 1.0 | 5.0 | 0.00 | 0.04 | 0.04 | 86 | 1010.0 |
| 20260507005359 | 68 | 341 | 2.0 | 9.0 | 0.00 | 0.04 | 0.04 | 86 | 1009.9 |